GEFSCGP_con_maxscp_336.txt.gz
SCP
0 0 0 0 0 0 0 0 0 0 0 0 1 0 0 1 1 1 1 1 2 2 1 1 1 1 1 1 1 2 2 2 2 2 1 1 0 0 0 0 0 0 0 0
0 0 0 0 0 0 0 0 0 0 0 0 0 0 0 1 1 1 1 1 2 2 2 2 2 1 1 2 2 2 2 2 2 2 1 1 0 0 0 0 0 0 0 0
0 0 0 0 0 0 0 0 0 0 0 0 0 0 0 1 1 1 1 1 1 2 3 2 2 2 2 2 3 3 3 2 2 1 1 1 0 0 0 0 0 0 0 0
0 0 0 0 0 0 0 0 0 0 0 0 0 0 1 1 1 1 1 1 2 3 3 3 2 2 2 3 4 4 3 3 2 1 1 1 1 0 0 0 0 0 0 0
0 0 0 0 0 0 0 0 0 0 0 0 0 0 1 1 2 1 1 1 1 3 3 2 2 2 2 4 5 5 4 3 2 2 1 1 1 1 1 1 1 1 1 1
0 0 0 0 0 0 0 0 0 0 0 0 0 0 0 1 1 1 1 1 1 2 2 2 1 1 2 3 5 5 4 3 2 2 1 1 1 1 1 1 1 1 1 1
0 0 0 0 0 0 0 0 0 0 0 0 0 0 0 1 1 1 2 1 1 2 2 1 1 1 2 3 4 4 3 2 2 2 1 1 1 1 1 1 1 1 1 1
0 0 0 0 0 0 0 0 0 0 0 0 0 0 0 1 1 2 2 2 2 2 2 1 1 1 1 2 3 3 2 2 2 1 1 1 1 1 2 2 2 1 1 1
0 0 0 0 0 0 0 0 0 0 0 0 0 1 1 1 1 1 2 3 4 3 3 2 2 2 2 2 2 2 2 1 1 1 1 1 2 2 2 2 2 2 1 1
0 0 0 0 0 0 0 0 0 0 0 0 0 1 1 1 1 1 2 3 3 4 3 3 2 2 2 2 2 2 2 2 1 1 1 2 2 3 3 2 2 1 1 1
0 0 0 0 0 0 0 0 0 0 0 0 0 0 1 1 1 1 1 2 2 3 3 2 2 2 2 2 2 2 2 2 2 1 1 2 2 3 3 2 1 1 1 1
0 0 0 0 0 0 0 0 0 0 0 0 0 0 1 1 1 1 1 1 2 2 2 1 1 1 1 1 2 2 3 3 2 2 2 2 2 2 2 2 1 1 1 1
0 0 0 0 0 0 0 0 0 0 0 0 0 0 1 1 1 1 1 1 1 1 1 1 1 1 1 1 2 3 4 4 3 3 2 2 2 2 2 2 1 1 1 1
0 0 0 0 0 0 0 0 0 0 0 0 0 1 1 1 1 1 1 1 1 1 1 1 1 1 1 1 2 3 4 4 4 4 3 3 2 2 2 2 1 1 1 1
0 0 0 0 0 0 0 0 0 0 0 0 0 1 1 0 1 1 1 1 1 1 1 2 2 2 2 2 2 2 4 5 5 5 5 4 3 3 3 2 1 1 1 1
0 0 0 0 0 0 0 0 0 0 0 0 0 0 0 0 1 1 1 2 2 2 2 3 3 3 3 2 1 2 3 4 5 6 6 5 4 3 3 3 2 1 1 1
0 0 0 0 0 0 0 0 0 0 0 0 0 0 0 1 1 1 1 2 2 3 4 4 4 4 3 1 1 1 2 3 5 6 6 6 5 4 4 3 2 2 2 2
0 0 0 0 0 0 0 0 0 0 0 0 0 0 1 1 1 1 1 2 3 4 5 5 4 4 2 1 1 1 2 3 4 6 6 7 6 5 4 3 2 2 2 3
0 0 0 0 0 0 0 0 0 0 0 0 0 1 1 1 1 1 1 2 3 4 4 4 3 3 2 1 1 1 2 2 3 5 6 7 7 6 4 3 2 2 2 2
0 0 0 0 0 0 0 0 0 0 0 0 0 1 1 1 1 1 1 2 3 3 4 4 3 3 2 2 2 2 2 2 3 4 6 7 7 6 4 3 2 2 2 2
0 0 0 0 0 0 0 0 0 0 0 0 0 1 1 1 1 0 1 2 3 4 5 4 3 3 3 2 2 2 3 3 3 4 5 5 5 4 3 2 2 2 2 2
0 0 0 0 0 0 0 0 0 0 0 0 0 0 0 0 0 0 1 2 3 4 4 4 3 3 3 2 3 3 4 4 4 4 4 3 3 3 3 3 2 2 2 2
0 0 0 0 0 0 0 0 0 0 0 0 0 0 0 0 0 0 1 1 2 3 2 2 2 2 2 3 3 5 5 5 5 4 4 3 2 3 3 3 3 3 3 3
0 0 0 0 0 0 0 0 0 0 0 0 0 0 0 0 1 1 1 1 1 1 1 2 2 2 2 3 4 5 5 5 4 4 3 3 2 3 3 3 4 4 4 4
0 0 0 0 0 0 0 0 0 0 0 0 0 0 0 0 1 1 1 1 1 1 2 2 3 3 3 3 3 3 4 4 4 3 3 3 3 3 2 2 3 3 3 3
0 0 0 0 0 0 0 0 0 0 0 0 0 0 0 1 1 1 1 1 1 1 2 3 4 4 3 2 2 2 3 3 3 3 3 4 3 3 2 2 2 2 2 3

GEFSCGP_con_maxscp_342.txt.gz
SCP
0 0 0 0 0 0 0 0 0 0 0 0 0 1 1 1 1 1 1 1 1 1 1 1 1 1 1 1 2 2 2 2 2 3 3 3 3 2 1 1 0 0 0 0
0 0 0 0 0 0 0 0 0 0 0 0 0 1 1 1 1 1 1 1 1 1 1 1 1 1 1 1 2 2 2 2 2 3 3 4 3 2 1 1 1 1 1 1
0 0 0 0 0 0 0 0 0 0 0 0 0 1 1 1 1 1 1 1 1 1 1 1 1 1 1 1 2 2 2 2 2 3 4 4 4 2 2 1 1 1 1 1
0 0 0 0 0 0 0 0 0 0 0 0 0 0 1 1 1 1 1 1 1 1 1 2 2 2 2 2 2 3 2 2 2 3 5 5 4 3 2 2 2 1 1 1
0 0 0 0 0 0 0 0 0 0 0 0 0 0 1 1 1 1 1 1 1 1 1 2 2 2 2 2 2 3 2 2 3 4 5 6 5 4 3 3 3 2 1 1
0 0 0 0 0 0 0 0 0 0 0 0 0 0 1 2 2 2 2 2 1 1 2 2 3 3 3 2 2 2 2 3 4 5 6 6 6 5 4 4 4 3 2 2
0 0 0 0 0 0 0 0 0 0 0 0 0 1 2 3 3 4 3 3 2 2 2 3 4 5 4 3 3 3 3 3 4 5 7 7 7 6 5 4 5 4 3 3
0 0 0 0 0 0 0 0 0 0 0 0 1 1 2 3 4 4 4 3 3 2 2 3 4 5 5 5 4 4 4 3 4 5 6 7 6 5 5 5 4 4 4 4
0 0 0 0 0 0 0 0 0 0 0 0 1 2 2 2 3 3 3 3 3 2 2 2 4 5 6 5 5 5 5 4 3 4 5 6 6 5 5 5 5 5 6 6
0 0 0 0 0 0 0 0 0 0 0 0 1 1 2 2 2 3 3 3 3 2 2 3 3 4 4 4 4 4 4 3 4 4 4 5 5 6 6 6 6 7 8 6
0 0 0 0 0 0 0 0 0 0 0 0 0 1 1 2 2 3 3 3 3 3 3 3 3 3 3 2 2 2 3 3 4 4 5 5 6 6 7 7 8 8 8 6
0 0 0 0 0 0 0 0 0 0 0 0 0 1 1 2 2 2 3 3 3 3 3 3 3 3 2 2 2 2 3 3 4 5 5 6 6 7 7 7 8 7 6 6
0 0 0 0 0 0 0 0 0 0 0 0 0 1 1 1 1 1 2 2 2 3 4 5 4 3 3 2 3 3 4 4 4 5 5 5 6 7 7 7 7 6 6 5
0 0 0 0 0 0 0 0 0 0 0 0 0 1 1 1 1 1 1 2 2 4 6 7 6 4 4 3 4 5 5 5 5 5 4 4 5 6 6 7 7 7 6 5
0 0 0 0 0 0 0 0 0 0 0 0 1 1 1 1 1 1 2 2 3 5 8 8 6 5 5 5 5 5 6 6 5 5 4 4 4 5 6 7 8 7 6 5
0 0 0 0 0 0 0 0 0 0 0 0 1 1 2 2 2 2 2 2 3 5 7 7 7 7 7 6 6 6 6 6 5 4 4 5 5 6 7 8 8 8 6 5
0 0 0 0 0 0 0 0 0 0 0 1 1 2 2 2 3 3 3 3 4 5 7 8 9 9 7 6 6 6 6 5 5 4 4 6 7 8 8 9 9 8 6 5
0 0 0 0 0 0 0 0 1 1 1 1 2 2 3 3 4 4 3 3 4 5 7 9 10 8 5 4 4 5 5 4 4 3 4 6 8 9 9 8 8 7 6 5
1 1 0 0 0 0 0 1 1 1 2 2 2 3 3 4 4 4 3 3 4 7 9 9 8 5 4 3 4 4 4 4 4 4 4 6 8 9 8 7 6 5 4 4
1 1 0 0 0 0 0 1 1 1 2 2 3 3 3 3 3 3 3 4 6 8 8 7 5 4 3 4 5 5 5 5 5 6 6 7 8 8 7 5 4 4 3 3
1 1 0 0 0 0 0 1 1 1 2 2 2 3 2 2 2 3 4 5 6 7 6 5 4 4 4 5 7 7 7 8 9 9 9 9 8 7 6 4 3 3 3 3
0 0 0 0 0 1 1 1 1 1 2 2 2 2 1 1 2 3 5 6 6 5 5 4 4 5 5 6 8 9 9 9 10 10 9 8 7 6 5 4 3 2 3 3
0 0 0 0 1 1 2 2 2 2 2 2 2 1 1 1 2 4 6 7 6 5 4 3 4 5 6 6 7 8 7 7 8 7 7 7 6 5 4 3 3 3 3 3
1 1 1 1 1 1 2 2 2 2 2 2 1 1 1 1 2 4 7 7 6 4 4 3 3 4 5 6 6 6 5 4 4 4 5 6 6 5 4 3 3 3 3 3
1 1 1 1 1 1 1 1 1 1 1 1 1 1 1 2 3 5 7 7 5 5 4 4 4 5 5 6 6 5 4 3 3 3 4 5 6 5 4 4 4 3 3 3
1 1 1 0 0 0 1 1 1 1 1 1 1 1 2 2 3 5 6 6 5 5 5 5 5 5 6 6 6 5 4 3 3 3 3 4 5 5 4 4 4 4 3 3

GEFSCGP_con_maxscp_348.txt.gz
SCP
0 0 0 0 0 0 0 0 0 0 1 1 1 1 1 1 2 2 2 2 3 4 4 4 3 2 3 3 3 3 3 3 3 3 4 3 3 3 3 3 2 2 2 1
0 0 0 0 0 0 0 0 0 0 1 1 1 1 1 1 2 2 2 3 4 5 6 5 4 3 3 4 5 5 5 5 4 4 4 4 4 4 4 4 3 2 2 2
0 0 0 0 0 0 0 0 0 0 1 1 1 1 2 2 2 2 2 3 5 7 8 6 5 5 5 5 5 6 6 6 5 4 4 4 4 4 5 5 4 3 3 2
0 0 0 0 0 0 0 0 0 0 1 1 1 1 2 2 2 2 2 3 5 8 9 8 7 6 6 5 5 5 5 5 5 4 3 3 3 4 5 7 7 5 4 3
0 0 0 0 0 0 0 0 0 0 0 1 1 1 2 3 3 3 3 4 5 8 9 8 8 7 6 5 4 4 5 5 4 4 3 3 3 4 6 9 11 8 5 4
0 0 0 0 0 0 0 0 0 0 0 1 1 1 2 3 3 3 4 4 5 8 9 8 9 9 7 5 4 4 5 5 5 4 4 4 4 4 7 11 13 10 7 6
0 0 0 0 0 0 0 0 0 0 1 1 1 1 3 5 6 5 4 4 5 7 8 9 10 10 8 6 5 5 5 6 6 5 5 5 5 5 7 10 12 10 8 7
0 0 0 0 0 0 0 0 0 0 0 1 1 2 4 7 9 8 6 4 4 7 9 11 12 12 9 6 5 5 6 6 6 6 6 7 6 6 7 9 10 10 8 8
0 0 0 0 0 0 0 0 0 0 0 1 1 2 4 7 9 9 8 7 7 10 13 15 16 13 10 8 6 6 6 7 7 7 7 7 7 7 8 9 9 9 9 10
0 0 0 0 0 0 0 0 0 0 0 1 1 2 4 7 7 8 9 11 14 16 19 19 17 13 10 8 6 6 7 8 8 8 7 8 8 8 9 9 10 10 11 12
0 0 0 0 0 0 0 0 0 0 0 0 1 2 4 6 6 6 9 12 16 18 18 17 13 10 8 7 6 7 7 8 8 9 9 9 10 10 11 11 11 12 12 13
0 0 0 0 0 0 0 0 0 0 0 0 1 2 3 4 5 5 7 8 10 11 11 11 9 8 8 8 8 10 10 8 8 10 12 12 11 12 13 13 13 14 13 13
0 0 0 0 0 0 0 0 0 0 1 0 1 2 3 4 4 4 5 5 5 6 7 9 9 9 9 10 10 11 12 10 9 11 13 14 13 12 13 15 17 17 15 12
0 0 0 0 0 0 0 0 0 0 0 1 1 2 2 3 4 4 4 4 4 5 9 11 11 10 10 10 9 11 12 12 11 11 12 13 12 11 12 15 18 18 16 13
0 0 0 0 0 0 0 0 0 0 0 1 1 2 4 6 6 4 3 4 5 7 11 13 11 9 9 8 9 10 12 13 13 12 12 12 11 11 13 14 16 16 14 12
0 0 0 0 0 0 0 0 0 1 1 2 2 2 5 8 8 5 3 4 6 8 10 10 9 8 8 9 10 13 14 14 15 15 14 13 12 12 13 13 13 13 11 10
0 1 0 0 0 0 0 1 1 1 2 3 4 4 4 5 5 5 5 6 7 8 8 8 8 9 9 11 13 15 14 14 16 17 16 15 14 12 12 11 10 10 9 8
1 1 1 0 0 0 1 1 1 1 2 3 4 5 5 3 3 5 7 7 7 7 8 9 9 9 10 12 14 14 12 12 15 17 18 18 15 12 10 9 9 8 7 7
1 1 1 0 0 0 1 1 1 1 2 2 4 6 6 5 4 5 6 7 7 9 11 12 10 10 11 12 12 11 9 9 13 18 20 19 16 12 9 8 8 7 7 8
1 1 1 0 0 1 1 1 0 1 1 2 4 6 6 5 5 5 5 7 9 11 13 13 12 11 11 10 9 7 6 8 12 17 19 18 14 11 9 8 8 8 9 10
1 1 1 1 0 1 1 0 1 1 2 3 4 5 5 4 4 4 5 8 10 12 13 13 12 13 12 11 8 6 6 7 9 12 14 12 10 8 8 8 8 9 10 10
1 1 1 1 1 1 1 1 1 2 3 3 3 3 3 3 3 3 6 9 10 11 12 13 14 15 15 13 10 7 6 6 7 8 8 8 7 7 7 8 9 9 9 9
1 1 1 1 1 1 1 2 2 2 2 2 2 2 2 2 2 3 5 9 10 11 12 13 15 17 17 14 11 8 7 6 6 7 7 7 7 6 7 7 7 6 6 6
1 1 1 1 1 1 1 1 1 1 1 1 2 2 2 2 2 2 5 9 11 13 13 13 16 17 17 14 10 8 7 7 7 7 7 6 6 6 5 5 4 4 4 4
1 1 1 1 1 1 1 1 1 1 1 1 1 2 2 2 2 4 7 10 12 13 14 14 16 16 14 12 9 8 7 7 7 7 6 6 5 5 5 4 3 3 3 3
0 1 1 1 1 1 1 1 1 1 1 1 1 1 2 2 3 6 10 11 11 13 15 16 16 15 12 10 9 8 8 8 8 7 6 6 5 6 5 5 4 3 2 2

GEFSCGP_con_maxscp_354.txt.gz
SCP
0 0 0 0 0 0 0 0 1 1 1 1 1 2 2 3 5 5 4 2 2 2 2 2 2 2 2 3 3 3 2 2 1 1 1 1 1 1 1 1 1 1 2 2
0 0 0 0 0 0 0 1 1 1 1 1 1 2 2 2 4 4 4 3 2 2 2 3 3 2 3 3 3 2 2 2 1 1 1 1 1 1 1 1 1 1 1 1
1 0 0 0 0 0 0 1 2 2 1 1 1 1 1 2 3 4 4 3 2 2 2 3 3 3 3 3 3 2 2 2 2 1 1 1 1 1 1 1 1 1 1 1
0 0 0 0 0 0 0 1 2 1 1 0 1 1 1 2 3 4 3 2 2 2 3 4 3 3 3 4 3 3 3 2 2 2 2 2 1 1 1 1 1 1 1 1
0 0 0 0 0 0 0 0 1 1 0 0 0 1 1 1 2 3 2 2 2 2 3 5 5 4 3 4 4 4 3 3 3 3 3 2 2 2 2 2 2 1 1 1
0 0 0 0 0 0 0 0 0 0 0 0 0 1 1 1 2 2 2 2 3 3 5 7 8 6 5 4 4 4 4 4 3 3 3 3 2 2 2 2 2 2 1 1
0 0 0 0 0 0 0 0 0 0 0 0 0 1 1 1 2 2 2 2 3 5 7 11 13 11 8 6 5 5 5 5 4 4 4 4 3 3 3 4 3 3 2 2
0 0 0 0 0 0 0 0 0 0 0 0 1 1 2 3 3 3 3 3 4 7 11 17 20 17 12 8 7 7 7 6 5 5 4 4 4 4 4 5 5 4 3 3
0 0 0 0 0 0 0 0 0 0 0 0 1 2 3 4 4 4 3 3 5 10 18 25 25 19 13 9 8 8 7 5 4 4 4 4 4 5 5 6 6 5 4 4
0 0 0 0 0 0 0 0 0 0 0 0 1 3 3 3 3 3 3 3 6 11 19 25 23 16 11 9 8 8 6 4 3 3 3 4 5 5 5 5 6 5 5 4
0 0 0 0 0 0 0 0 0 0 0 0 1 2 2 2 3 4 3 3 4 7 12 15 14 10 8 7 7 7 5 4 3 2 3 4 5 5 6 6 5 4 4 5
0 0 0 0 0 0 0 0 0 0 0 0 1 2 2 2 4 4 3 2 3 4 5 6 6 5 4 5 6 6 5 4 3 3 3 4 5 6 7 7 5 4 4 5
0 0 0 0 0 0 0 0 0 0 0 0 1 1 3 4 4 3 2 2 3 3 4 4 5 4 4 5 6 5 5 4 4 4 4 5 6 7 8 8 7 5 5 5
0 0 0 0 0 0 0 0 0 0 1 1 1 2 3 4 3 2 2 2 3 4 4 5 6 6 5 5 5 5 4 4 5 5 5 5 7 7 8 9 9 7 6 6
0 0 0 0 0 0 0 0 0 1 1 1 2 3 3 3 2 2 2 3 4 5 5 5 6 6 6 5 4 4 5 5 6 7 6 6 7 8 8 10 11 10 8 7
0 0 0 0 0 0 0 0 0 1 1 1 2 2 2 2 2 2 2 3 4 5 5 5 5 5 4 4 4 4 6 7 7 7 6 5 7 7 7 10 12 10 8 7
0 0 0 0 0 0 0 0 0 1 1 1 2 2 2 2 2 2 2 3 5 6 6 5 4 4 4 4 4 5 5 7 7 5 4 4 6 6 6 8 10 9 7 5
0 0 0 0 0 0 0 0 1 1 2 1 2 2 2 2 2 2 2 3 4 6 6 5 5 4 4 4 5 5 5 5 5 4 3 3 4 4 5 6 7 7 5 4
0 0 0 0 0 0 0 0 0 1 1 2 2 2 2 3 2 2 2 2 3 5 7 6 6 5 5 5 5 5 4 4 4 3 3 3 3 3 4 4 4 5 4 3
0 0 0 0 0 0 0 0 0 1 1 1 1 2 2 2 2 2 3 3 3 5 7 7 7 6 5 5 4 4 3 3 3 3 2 2 3 3 3 3 3 4 3 3
0 0 0 0 0 0 0 0 0 0 1 1 1 1 1 1 1 2 4 5 6 6 7 9 9 8 6 5 4 3 3 3 3 3 3 3 3 3 3 3 3 3 3 3
0 0 0 0 0 0 0 0 0 0 0 0 0 1 1 1 1 2 5 7 8 8 9 11 12 11 9 6 4 3 3 4 5 5 5 5 4 4 4 4 4 4 3 3
0 0 0 0 0 0 0 0 0 1 1 1 1 1 1 1 1 2 5 7 8 8 10 13 15 13 10 7 4 3 4 6 8 9 8 7 6 5 5 5 5 4 4 3
0 0 0 1 0 0 1 1 1 1 1 1 1 1 1 1 2 3 4 6 7 8 10 13 15 14 10 7 5 4 4 7 10 11 11 9 8 6 6 6 6 5 4 4
0 0 1 1 1 1 1 1 1 1 1 1 1 1 1 2 4 4 5 5 5 6 9 12 13 12 10 7 5 5 6 8 10 12 13 12 9 7 7 6 6 5 4 4
0 0 1 1 1 1 1 1 1 1 1 1 1 1 1 2 5 5 4 4 4 6 8 11 12 12 10 8 6 5 7 9 11 12 14 13 10 8 7 6 6 5 4 3

GEFSCGP_con_maxscp_360.txt.gz
SCP
0 0 0 0 0 0 0 0 0 0 0 1 1 1 1 1 1 2 2 1 1 1 2 2 2 1 1 1 1 1 1 1 1 1 1 1 0 0 0 1 1 1 1 1
1 0 0 0 0 0 0 0 0 0 0 1 1 1 1 1 1 2 2 2 2 2 2 2 2 1 1 1 1 1 1 1 1 2 1 1 0 0 0 1 1 1 1 1
1 0 0 0 0 0 0 0 0 0 0 1 1 1 1 1 2 1 2 2 2 2 2 2 1 1 1 1 1 1 1 1 2 2 2 1 1 1 1 1 1 1 1 1
0 0 0 0 0 0 0 0 0 0 0 0 0 1 1 1 1 1 1 1 1 1 1 1 1 1 1 1 1 1 1 1 2 3 3 2 1 1 1 1 1 1 1 1
0 0 0 0 0 0 0 0 0 0 0 0 0 0 1 1 1 1 1 1 1 1 1 1 1 1 2 1 1 1 2 2 3 3 3 3 2 1 1 1 1 1 1 1
0 0 0 0 0 0 0 0 0 0 0 0 0 0 0 1 1 1 1 1 1 2 2 1 1 2 2 2 2 2 2 3 3 4 4 3 2 2 1 1 1 1 1 1
0 0 0 0 0 0 0 0 0 0 0 0 0 0 0 1 1 1 0 1 1 1 2 2 2 2 2 2 3 3 3 3 4 4 3 2 2 1 1 2 2 1 1 1
0 0 0 0 0 0 0 0 0 0 0 0 0 0 0 1 1 0 0 0 1 1 1 2 2 2 2 2 3 3 3 4 4 3 3 2 2 2 2 2 2 2 2 1
0 0 0 0 0 0 0 0 0 0 0 0 0 1 1 1 1 0 0 0 1 1 2 2 2 2 2 2 3 4 4 3 3 3 2 2 2 2 2 2 3 3 2 2
0 0 0 0 0 0 0 0 0 0 0 0 1 1 1 1 1 0 0 0 1 1 2 2 2 2 2 2 3 4 4 4 4 4 3 3 2 2 2 3 3 3 3 3
0 0 0 0 0 0 0 0 0 0 0 0 1 1 1 1 1 0 0 0 0 1 1 2 2 2 2 2 2 3 3 4 5 5 4 3 2 2 3 3 3 4 4 4
0 0 0 0 0 0 0 0 0 0 0 0 0 1 1 1 1 0 0 0 0 1 1 1 2 2 2 2 2 2 2 3 4 4 3 3 2 2 3 4 4 4 4 4
0 0 0 0 0 0 0 0 0 0 0 0 0 0 1 1 1 1 0 0 1 1 1 1 2 2 2 2 2 2 2 2 2 2 2 2 2 2 3 4 5 4 4 4
0 0 0 0 0 0 0 0 0 0 0 0 0 0 1 1 1 1 0 0 0 1 1 1 2 2 2 2 2 2 2 2 2 2 2 2 2 2 3 4 5 5 4 4
0 0 0 0 0 0 0 0 0 0 0 0 0 0 1 1 1 1 0 0 0 0 1 1 2 2 2 2 2 2 2 2 2 2 2 2 2 2 2 3 4 4 4 4
0 0 0 0 0 0 0 0 0 0 0 1 1 1 1 1 1 0 0 0 0 0 1 1 2 3 2 2 2 3 2 2 2 3 3 2 2 2 2 2 3 4 4 4
0 0 0 0 0 0 0 0 0 0 1 1 1 1 1 1 1 0 0 0 0 1 1 1 2 3 3 2 2 3 3 3 3 3 3 2 2 2 2 2 3 3 4 4
0 0 0 0 0 0 0 0 0 0 1 1 1 1 1 1 0 0 1 1 1 1 1 1 2 3 3 2 2 3 3 3 3 3 2 1 1 2 2 2 3 3 3 4
0 0 0 0 0 0 0 0 0 0 0 1 1 1 1 1 1 1 1 1 1 1 1 1 2 3 4 3 3 3 4 4 4 3 2 1 1 1 2 2 3 3 3 4
0 0 0 0 0 0 0 0 0 0 0 0 1 1 1 1 1 1 1 1 1 1 1 2 2 3 4 4 3 3 4 4 4 3 2 1 1 1 2 2 3 3 4 4
0 0 0 0 0 0 0 0 0 0 0 0 0 1 1 1 1 0 1 1 1 2 2 3 3 4 4 4 4 4 4 4 3 2 1 1 2 2 2 3 3 4 4 5
0 0 0 0 0 0 0 0 0 0 0 0 0 1 1 0 0 1 1 1 2 2 3 4 5 5 5 5 5 4 4 3 2 2 2 2 3 3 3 4 4 5 6 6
0 0 0 0 0 0 0 0 0 0 0 0 1 1 0 0 1 1 2 2 2 2 3 4 6 6 6 6 5 5 4 3 2 2 3 4 4 5 5 6 6 7 7 8
0 0 0 0 0 0 0 0 0 0 0 1 1 1 1 1 1 2 3 3 2 2 2 4 5 6 6 6 5 4 4 3 3 3 4 6 7 8 9 9 8 9 9 9
0 0 0 0 0 0 0 0 0 1 1 1 1 0 1 2 2 3 4 4 3 2 2 3 4 5 5 4 4 3 3 3 4 5 7 9 10 11 12 11 10 9 9 9
0 0 0 0 0 0 0 0 0 1 1 1 1 0 1 2 3 4 4 5 4 3 3 3 4 4 3 3 3 3 2 3 5 7 9 10 11 12 13 12 10 7 7 7

GEFSCGP_con_maxscp_366.txt.gz
SCP
0 0 0 0 0 0 0 0 0 0 0 0 0 0 1 1 1 1 2 2 2 1 1 1 1 1 1 1 1 2 2 2 1 1 2 2 1 1 1 1 1 1 1 1
1 1 0 0 0 0 0 0 0 0 0 0 0 0 1 1 1 1 2 2 2 1 1 1 1 1 1 1 2 2 2 2 2 2 2 2 2 1 1 1 1 1 1 1
1 0 0 0 0 0 0 0 0 0 0 0 0 1 1 1 1 1 1 1 1 1 1 1 1 1 1 1 2 2 2 2 2 3 2 2 2 2 2 1 1 1 1 1
0 0 0 0 0 0 0 0 0 0 0 0 0 0 1 1 1 1 1 1 1 1 1 1 1 2 2 1 1 2 2 3 4 4 3 2 2 2 2 2 2 1 1 1
0 0 0 0 0 0 0 0 0 0 0 0 0 0 1 1 1 1 1 1 1 1 1 2 2 2 2 1 1 2 3 4 5 5 5 4 3 3 3 3 3 2 2 2
0 0 0 0 0 0 0 0 0 0 0 0 0 0 1 1 1 1 1 1 1 2 2 3 3 3 2 1 1 3 4 6 6 6 5 5 5 4 4 4 4 3 3 3
0 0 0 0 0 0 0 0 0 0 0 0 0 0 1 1 1 1 1 1 1 2 2 3 4 4 3 2 2 3 4 5 5 5 5 6 6 6 5 5 5 4 3 3
0 0 0 0 0 0 0 0 0 0 0 0 0 1 1 1 1 1 1 1 1 1 2 3 4 4 4 3 2 2 3 4 4 4 5 6 7 6 6 6 5 4 3 3
0 0 0 0 0 0 0 0 0 0 0 0 0 1 1 1 1 1 1 1 1 2 2 3 3 4 4 3 2 2 2 3 3 3 4 5 7 7 7 7 6 5 4 3
0 0 0 0 0 0 0 0 0 0 0 0 0 1 1 1 1 1 1 1 1 2 2 2 3 4 4 3 3 2 2 2 2 3 3 4 6 7 7 7 7 6 5 5
0 0 0 0 0 0 0 0 0 0 0 0 0 1 1 1 1 1 1 1 1 1 2 2 3 3 4 4 4 3 3 2 2 3 3 4 5 6 6 6 6 6 6 6
0 0 0 0 0 0 0 0 0 0 0 0 0 1 1 1 2 2 2 1 1 1 1 2 2 3 4 4 5 4 3 3 2 3 3 4 4 4 4 5 5 6 6 6
0 0 0 0 0 0 0 0 0 0 0 0 0 1 1 2 2 2 2 1 1 1 1 2 3 4 4 5 5 5 4 4 3 3 3 3 3 3 4 4 4 4 4 4
0 0 0 0 0 0 0 0 1 1 1 0 0 1 1 2 2 2 1 1 1 1 1 2 3 4 5 5 6 6 5 4 4 3 3 3 3 3 3 3 2 2 3 3
0 0 0 0 0 0 0 0 0 1 1 1 1 1 2 2 2 2 1 1 1 1 1 2 3 3 4 5 6 7 7 6 5 4 3 3 2 2 3 2 2 2 2 2
0 0 0 0 0 0 0 0 0 0 0 0 1 1 2 2 1 1 1 1 1 1 2 2 2 2 3 4 6 8 9 8 6 4 3 3 2 2 2 2 2 2 2 2
0 0 0 0 0 0 0 0 0 0 0 0 1 1 2 2 1 1 1 2 2 2 2 2 2 2 2 4 7 10 11 10 7 5 4 3 3 3 3 3 3 2 3 3
1 0 0 1 1 0 0 0 0 0 0 0 1 1 1 1 1 1 2 3 3 2 2 2 2 2 2 4 7 11 13 11 9 6 5 4 4 4 4 3 3 3 3 3
1 1 1 1 1 0 0 0 1 1 1 1 1 1 1 1 1 2 3 4 4 3 3 3 3 2 3 4 6 9 11 10 8 6 5 5 5 5 5 4 3 3 3 3
1 1 1 0 0 0 0 0 0 0 1 1 1 1 1 1 1 2 3 4 4 4 4 4 4 3 4 4 5 6 7 8 7 6 6 6 6 6 5 4 3 3 3 3
1 1 1 0 0 0 0 0 0 1 1 1 1 1 1 1 2 2 2 3 3 4 4 4 4 5 5 5 5 5 5 6 7 6 6 6 6 5 4 4 3 3 3 4
1 1 1 1 1 1 1 1 1 1 1 1 1 1 1 2 2 2 2 2 2 3 3 3 4 6 6 5 5 4 5 6 6 6 6 6 5 5 4 4 4 4 4 5
1 1 1 1 1 1 1 1 1 1 1 1 1 1 1 2 2 3 2 2 2 2 3 4 5 6 6 5 4 4 4 5 6 7 6 5 4 4 4 4 4 4 4 4
1 1 1 1 1 1 1 1 1 1 1 1 1 2 1 2 2 3 3 3 3 5 6 8 8 8 6 4 4 4 4 5 6 6 5 4 3 3 4 3 3 3 3 3
1 1 1 1 1 1 1 1 1 1 1 1 2 2 1 2 3 3 3 4 6 8 10 10 9 8 6 4 4 4 4 5 5 4 3 3 3 3 3 3 3 2 2 2
1 1 1 1 1 1 1 1 1 1 1 2 2 2 1 2 3 4 4 5 7 9 10 9 7 5 4 4 4 5 4 5 5 3 2 2 3 3 3 3 2 2 2 2

GEFSCGP_con_maxscp_372.txt.gz
SCP
0 0 0 0 0 0 0 0 0 0 0 1 1 1 1 2 2 4 5 4 3 4 4 4 4 4 4 5 5 5 5 5 4 4 5 4 4 3 2 2 2 3 3 4
0 0 0 0 0 0 0 0 0 0 1 1 1 1 1 2 3 4 5 5 4 4 5 5 5 5 5 5 5 6 6 5 5 5 5 5 4 3 3 3 3 3 3 3
0 0 0 0 0 0 0 0 0 0 1 1 1 1 2 3 4 3 4 5 4 4 5 5 6 6 5 5 5 6 6 6 5 5 5 5 4 4 4 4 3 3 3 3
0 0 0 0 0 0 0 0 0 0 1 1 1 1 2 3 3 3 4 5 4 3 3 5 6 6 6 5 5 6 6 6 5 5 4 4 4 4 5 5 5 4 3 3
0 0 0 0 0 0 0 0 0 0 0 0 0 1 2 3 3 4 4 5 4 3 3 5 7 6 6 5 4 5 6 6 5 5 5 5 5 5 5 6 7 6 4 3
0 0 0 0 0 0 0 0 0 0 0 0 0 1 1 2 3 4 4 4 4 4 5 6 7 6 6 7 6 5 5 6 6 6 7 7 7 7 7 7 8 7 5 4
0 0 0 0 0 0 0 0 0 0 1 1 0 1 2 2 3 4 4 4 4 6 6 6 6 5 6 8 8 7 6 6 6 7 8 10 11 11 10 8 7 6 5 4
0 0 0 0 0 0 0 0 0 0 0 1 1 1 2 2 3 3 3 3 4 6 6 5 5 5 6 7 8 9 8 7 7 8 10 12 14 14 13 9 7 6 5 4
0 0 0 0 0 0 0 0 0 0 0 0 1 2 2 3 3 3 2 2 3 5 5 5 7 8 7 7 7 7 7 7 8 9 10 12 14 16 15 11 8 6 5 5
0 0 0 0 0 0 0 0 0 0 0 0 1 2 3 3 3 3 2 2 3 4 5 6 8 10 9 8 7 7 7 7 7 8 9 10 12 14 15 13 9 7 6 5
0 0 0 0 0 0 0 0 0 0 0 0 1 1 2 3 3 3 3 3 3 4 5 5 6 8 8 7 7 7 7 7 7 7 7 7 8 10 11 11 11 9 7 6
0 0 0 0 0 0 0 0 0 0 0 0 1 1 3 3 4 4 3 3 3 3 4 4 5 6 6 6 7 8 9 9 7 7 6 6 6 6 7 8 9 10 8 6
0 0 0 0 0 0 0 0 0 0 0 0 1 2 2 3 4 4 3 3 3 3 3 4 5 5 5 6 8 10 11 11 9 8 7 7 7 6 5 4 5 7 6 6
0 0 0 0 0 0 0 0 0 0 0 1 1 2 2 3 3 3 4 3 3 3 3 3 5 6 6 7 9 12 14 14 12 10 10 10 9 7 5 4 4 4 4 4
0 0 0 0 0 0 0 0 0 0 1 1 1 2 3 3 3 3 4 4 3 2 2 3 5 6 7 7 10 13 16 16 15 13 13 12 10 8 6 5 4 4 4 4
0 0 0 0 0 0 0 0 0 0 0 1 1 2 3 3 3 3 4 4 3 2 2 3 5 7 7 8 10 13 16 18 18 18 17 15 12 9 8 6 5 5 4 4
0 1 0 0 0 0 0 0 0 0 0 1 1 2 3 3 3 4 4 4 3 3 3 4 6 7 7 8 9 11 14 17 19 21 20 16 13 11 10 8 6 5 5 5
1 1 1 1 0 0 1 1 1 0 0 1 1 2 3 3 4 5 5 5 5 5 4 5 6 7 6 7 8 8 11 15 19 21 19 15 13 12 11 9 7 7 7 7
0 1 1 1 0 0 1 1 1 1 1 2 2 3 3 3 4 5 5 6 7 8 7 7 6 6 6 6 7 8 9 13 16 17 15 13 12 12 12 10 8 8 9 9
0 1 1 1 0 0 0 0 1 1 1 2 3 4 4 4 4 4 4 5 7 8 9 8 7 6 6 6 7 9 10 13 15 14 13 12 11 11 11 11 11 12 11 10
1 1 1 1 1 1 0 0 1 1 1 2 3 3 4 4 4 4 4 4 5 7 8 8 7 6 6 6 8 12 15 16 17 14 11 10 9 9 11 15 18 18 16 13
1 1 1 1 1 1 1 2 2 2 2 1 2 2 2 3 4 4 4 4 5 6 7 6 6 5 5 7 11 17 21 22 19 14 9 7 6 6 9 16 22 24 21 17
1 1 1 1 2 2 3 3 3 2 2 1 1 2 2 3 4 5 5 5 5 6 6 5 4 4 6 11 16 21 23 23 18 12 8 7 6 5 7 13 22 25 23 19
1 1 1 1 2 2 2 3 2 2 1 1 2 3 4 4 5 5 5 5 5 6 5 5 7 10 14 19 21 21 20 18 15 12 9 8 6 5 7 12 18 22 21 18
1 1 1 2 2 2 2 2 2 2 2 2 3 4 5 6 5 4 4 4 5 5 6 9 14 19 23 25 25 22 17 13 13 12 10 8 6 5 7 10 12 14 14 12
1 1 1 2 2 2 2 3 3 3 2 2 3 4 5 6 6 4 4 4 4 4 7 12 18 22 25 26 27 24 17 12 12 13 11 8 6 5 6 8 7 7 7 6

GEFSCGP_con_maxscp_378.txt.gz
SCP
0 0 0 0 0 0 0 1 1 2 4 4 3 2 1 2 3 4 6 9 10 10 11 11 10 8 6 5 4 3 3 4 4 4 3 2 2 1 1 1 1 1 1 1
0 0 0 0 0 0 0 1 1 2 3 4 3 2 1 2 4 5 6 8 9 9 10 10 9 8 7 6 4 4 4 4 4 4 3 2 2 2 1 1 1 1 1 1
0 0 0 0 0 0 0 1 1 2 2 2 2 1 2 3 5 5 5 6 7 8 9 8 7 7 6 6 5 4 4 4 4 4 4 3 2 2 1 1 1 1 1 1
0 0 0 0 0 0 0 0 0 1 1 1 1 1 1 3 5 4 4 4 5 7 8 8 7 6 5 5 5 4 4 4 4 4 4 3 2 2 2 1 1 1 2 2
0 0 0 0 0 0 0 0 0 0 0 0 0 0 1 2 3 3 3 3 4 7 8 8 6 5 4 4 4 4 4 4 4 4 4 3 3 2 2 2 2 2 2 3
0 0 0 0 0 0 0 0 0 0 0 0 0 0 1 2 2 2 2 2 4 7 8 7 5 4 4 4 5 4 4 4 4 3 4 4 4 3 3 3 3 3 3 3
0 0 0 0 0 0 0 0 0 0 0 0 0 0 1 1 1 2 2 3 5 7 7 6 4 3 4 4 5 5 4 4 3 3 4 5 5 4 4 3 3 3 3 3
0 0 0 0 0 0 0 0 0 0 0 0 0 1 1 1 2 3 4 5 6 7 6 5 3 3 3 4 6 6 5 4 3 3 4 5 6 5 5 4 4 3 3 3
0 0 0 0 0 0 0 0 0 0 0 0 0 0 1 2 3 4 6 7 8 7 6 4 4 3 3 4 5 6 6 4 3 3 4 5 6 6 6 5 4 4 3 3
0 0 0 0 0 0 0 0 0 0 0 0 0 0 1 2 4 5 6 7 7 6 5 4 4 4 4 4 5 6 6 5 4 4 4 4 5 6 6 6 5 5 4 4
0 0 0 0 0 0 0 0 0 0 0 0 0 0 1 2 3 3 4 5 5 5 4 4 4 5 4 3 4 5 6 6 5 4 4 4 5 5 5 5 5 5 4 4
0 0 0 0 0 0 0 0 0 0 0 0 0 1 1 2 2 2 3 4 4 4 4 4 4 4 4 4 4 5 6 7 7 6 5 4 4 4 4 4 4 4 3 3
0 0 0 0 0 0 0 0 0 0 0 0 0 1 1 1 2 2 3 3 4 4 4 3 3 4 4 5 5 6 8 9 9 8 6 5 4 3 3 3 3 3 2 2
0 0 0 0 0 0 0 0 0 0 0 0 0 1 1 1 1 2 2 3 3 3 3 3 3 4 5 5 6 7 9 11 12 11 8 6 5 4 3 3 3 2 2 2
0 0 0 0 0 0 0 0 0 0 0 0 0 1 1 2 2 2 2 2 3 3 3 2 3 5 6 5 5 6 9 13 15 14 10 7 5 4 3 3 3 3 2 2
0 0 0 0 0 0 0 0 0 0 0 0 1 1 2 3 3 3 3 3 3 2 2 3 4 6 6 5 4 5 8 15 19 19 14 8 5 4 4 3 3 3 3 3
0 0 0 0 0 0 0 0 0 0 1 1 1 2 4 7 8 7 7 5 3 2 2 3 5 6 6 5 4 5 8 15 21 23 18 10 5 4 4 3 3 4 4 4
0 0 0 0 0 0 0 0 0 1 1 1 2 5 8 10 10 9 7 6 5 4 4 4 6 6 6 5 5 5 8 14 21 24 19 12 7 6 5 4 3 4 4 5
0 0 0 0 0 0 0 0 0 1 1 2 4 7 9 8 7 6 5 5 4 4 4 5 5 5 5 6 6 6 8 12 17 19 17 13 11 9 6 4 3 3 4 5
0 0 0 0 0 0 0 0 0 0 1 2 4 6 7 5 4 3 3 3 3 3 4 4 4 5 6 7 7 6 6 8 10 12 14 15 13 11 7 5 3 3 4 5
0 0 0 0 0 0 0 0 0 0 1 1 3 5 5 4 3 3 3 3 3 4 4 4 5 6 7 7 6 5 4 4 5 9 13 14 13 10 7 4 3 2 3 3
0 0 0 0 0 1 1 1 0 0 0 1 2 3 4 3 3 3 4 4 4 4 4 5 6 6 6 5 4 3 2 2 3 7 11 13 12 10 7 5 3 2 2 3
0 0 0 0 0 1 1 1 0 0 0 1 2 3 3 2 2 2 2 3 3 3 3 3 4 4 3 3 2 1 1 1 3 7 10 11 10 9 7 5 3 3 2 3
0 0 0 0 1 1 1 1 0 0 1 1 2 3 3 2 2 1 1 2 2 2 2 2 2 2 1 1 1 1 1 1 3 6 8 9 9 8 7 5 4 4 3 3
0 0 0 0 0 0 0 1 1 1 1 1 2 3 3 3 2 1 1 1 2 3 2 2 1 1 0 1 1 2 2 2 4 5 6 6 7 7 6 6 5 4 4 4
0 0 0 0 0 0 0 0 1 1 1 1 2 3 3 3 2 1 1 1 2 2 2 1 1 1 0 1 1 2 2 3 4 4 4 5 5 5 5 5 5 5 4 3